Torna al catalogo

STARLINK-38031

AttivoComunicazioniVLEO
NORAD 69827·PAYLOAD·🇺🇸 United States

Lanciato Jul 5, 2026 da Cape Canaveral Space Force Station

Loading…

Prossimi Passaggi (prossime 24 ore)

TLE

AggiornatoSource: CelesTrak SupGP

Epoca: Sep 14, 2026, 21:30 UTC

1 69827C 26154J   26257.89631944 -.00002421  00000+0 -71546-4 0  2570
2 69827  53.1601 358.1159 0001214  72.2245 345.5220 15.34384231    18

Traccia STARLINK-38031 in tempo reale con AllMySat

Download on the App Store